Regional Weather Roundup
Issued by NWS

Home | Current Version | Previous Version | Text Only | Print | Product List | Glossary On
Versions: 1 2 3 4 5 6 7 8 9 10 11 12 13 14 15 16 17 18 19 20 21 22 23 24 25 26 27
000
ASUS44 KLIX 180613
RWRLA
LOUISIANA WEATHER ROUNDUP
NATIONAL WEATHER SERVICE NEW ORLEANS LA
1200 AM CST THU JAN 18 2018

NOTE: "FAIR" INDICATES FEW OR NO CLOUDS BELOW 12,000 FEET WITH NO
      SIGNIFICANT WEATHER AND/OR OBSTRUCTIONS TO VISIBILITY.
      SKY/WX - SKY CONDITION AND SIGNIFICANT WEATHER.
      TMP - AIR TEMPERATURE.    DP   - DEWPOINT TEMPERATURE.
      RH  - RELATIVE HUMIDITY.  PRES - PRESSURE.
      HX  - HEAT INDEX.         WCI  - WIND CHILL INDEX.

*  THESE STATIONS ARE NOT NWS OR FAA STATIONS AND ARE NOT UNDER
   NWS QUALITY CONTROL.

LAZ040-048-061>063-065-066-069-180700-
SOUTHEAST LOUISIANA

CITY           SKY/WX    TMP DP  RH WIND       PRES   REMARKS
N.O. INTL ARPT FAIR      30  16  56 NE6       30.62R WCI  24
6HR MIN TEMP:  30; 6HR MAX TEMP:  34;

N.O. LAKEFRONT FAIR      30  16  56 NE15      30.62R WCI  19
6HR MIN TEMP:  30; 6HR MAX TEMP:  35;

N.O. DOWNTOWN* FAIR      29  15  56 N7        30.62R WCI  22
6HR MIN TEMP:  29; 6HR MAX TEMP:  34;

RESERVE*       FAIR      29  14  53 NE5       30.63S WCI  24
6HR MIN TEMP:  29; 6HR MAX TEMP:  33;

SLIDELL        FAIR      24  14  65 CALM      30.61S
6HR MIN TEMP:  23; 6HR MAX TEMP:  31;

BATON ROUGE    FAIR      23  14  68 NW3       30.63S
6HR MIN TEMP:  22; 6HR MAX TEMP:  31;

BOOTHVILLE     FAIR      35  22  58 N9        30.58S WCI  28
6HR MIN TEMP:  35; 6HR MAX TEMP:  36;

BELLE CHASSE   FAIR      28  16  60 N6        30.61R WCI  22
6HR MIN TEMP:  27; 6HR MAX TEMP:  32;

BOGALUSA*      FAIR      24  15  67 CALM      30.61S
6HR MIN TEMP:  24; 6HR MAX TEMP:  30;

GALLIANO*      FAIR      29  15  56 N7        30.59F WCI  22
6HR MIN TEMP:  27; 6HR MAX TEMP:  32;

NEW ROADS*     FAIR      21  16  81 NW3       30.65R
6HR MIN TEMP:  21; 6HR MAX TEMP:  27;

GONZALES*      FAIR      24  15  69 CALM      30.63S
6HR MIN TEMP:  23; 6HR MAX TEMP:  32;

HAMMOND*       FAIR      23  16  74 CALM      30.62S
HOUMA*         FAIR      26  16  67 N8        30.60F WCI  17
6HR MIN TEMP:  24; 6HR MAX TEMP:  31;

PORT FOURCHON* CLEAR     32  18  55 N13       30.59S WCI  22

$$

LAZ041-044-053-054-180700-
SOUTHWEST LOUISIANA

CITY           SKY/WX    TMP DP  RH WIND       PRES   REMARKS
LAKE CHARLES   FAIR      24  16  71 NE6       30.64F WCI  17
6HR MIN TEMP:  24; 6HR MAX TEMP:  31;

LAFAYETTE      FAIR      22  15  75 N5        30.64F WCI  16
6HR MIN TEMP:  22; 6HR MAX TEMP:  27;

PATTERSON      FAIR      25  18  74 N6        30.63S WCI  18
6HR MIN TEMP:  24; 6HR MAX TEMP:  31;

SALT POINT       N/A     24  18  77 N5        30.61S WCI  18
6HR MIN TEMP:  24; 6HR MAX TEMP:  30;

NEW IBERIA     FAIR      21  15  78 N7        30.64S WCI  12
6HR MIN TEMP:  21; 6HR MAX TEMP:  28;

CHENAULT AIRPK FAIR      23  15  71 N3        30.65F
6HR MIN TEMP:  23; 6HR MAX TEMP:  31;


$$

LAZ027-028-180700-
CENTRAL LOUISIANA

CITY           SKY/WX    TMP DP  RH WIND       PRES   REMARKS
FORT POLK      FAIR      20  16  84 CALM      30.64R
6HR MIN TEMP:  20; 6HR MAX TEMP:  28;

ALEXANDRIA INT FAIR      20  16  84 CALM      30.65R
6HR MIN TEMP:  20; 6HR MAX TEMP:  28;

ALEXANDRIA     FAIR      18  14  84 CALM      30.65R
6HR MIN TEMP:  17; 6HR MAX TEMP:  27;


$$

LAZ001-002-180700-
NORTHWEST LOUISIANA

CITY           SKY/WX    TMP DP  RH WIND       PRES   REMARKS
SHREVEPORT     CLOUDY    19  14  81 W3        30.64F
6HR MIN TEMP:  19; 6HR MAX TEMP:  26;

BARKSDALE AFB  FAIR      18  13  83 CALM      30.65S
6HR MIN TEMP:  17; 6HR MAX TEMP:  25;

DTN SHREVEPORT CLOUDY    21  15  78 CALM      30.65F
6HR MIN TEMP:  20; 6HR MAX TEMP:  28;


$$

LAZ014-016-180700-
NORTHEAST LOUISIANA

CITY           SKY/WX    TMP DP  RH WIND       PRES   REMARKS
MONROE         FAIR      19  14  81 NE5       30.65F WCI  12
6HR MIN TEMP:  19; 6HR MAX TEMP:  25;

TALLULAH       FAIR      16  13  88 N6        30.64F WCI   7
6HR MIN TEMP:  14; 6HR MAX TEMP:  22;


$$





USA.gov is the U.S. government's official web portal to all federal, state and local government web resources and services.